sat.trackr.live / text

‹ back to catalog

STARLINK-2510

NORAD 48329 · 2021-036BF

PAYLOAD ACTIVE UNKNOWN

§ Identity

Operator
Country
US
Launch date
2021-04-29
Launch site
AFETR
Launch vehicle
Mass (kg)
RCS (m²)

Purposes: comms

External: N2YO · Heavens-Above · Gunter

§ Orbital elements

Epoch: 2026-05-25T03:02:40.164000Z

Period
94.01 min
Inclination
53.1606°
Eccentricity
0.0001387
Mean motion
15.31690463 rev/d
Perigee alt
469.8 km
Apogee alt
471.7 km
Semi-major
6,848.9 km
B*
2.1113e-5
RAAN
105.4679°
Arg perigee
101.3168°
Mean anomaly
258.7989°
Rev number
27,975

§ Raw data

STARLINK-25101 48329U 21036BF  26145.12685375  .00000290  00000+0  21113-4 0  99952 48329  53.1606 105.4679 0001387 101.3168 258.7989 15.31690463279756

JSON: /api/v1/satellites/48329 · /tle

For live sub-satellite position, see the globe view (requires WebGL).

§ Visibility from observer

Set your observer location to see the next 7 days of passes ≥ 10°. The values pass through the URL so the page stays shareable.

No JS? Fill the form by hand. The geolocation button needs JavaScript.